This is the latest recevied weather packets stored in our database for station/object IK2ILW-4. If no packets are shown the sender has not sent any weather packets the latest 10 day(s).
| Time | Temp. | Humidity | Pressure | Rain* | Wind** | Luminosity | Snow |
|---|---|---|---|---|---|---|---|
| 1787501867 | 20° C | 72% | 1023.6 hPa | 0 mm | - | 265 W/m² | - |
| 1787501556 | 20.56° C | 70% | 1023.7 hPa | 0 mm | - | 283 W/m² | - |
| 1787501255 | 20° C | 69% | 1023.7 hPa | 0 mm | - | 301 W/m² | - |
| 1787500962 | 20° C | 69% | 1023.7 hPa | 0 mm | - | 315 W/m² | - |
| 1787500657 | 20.56° C | 69% | 1023.8 hPa | 0 mm | - | 359 W/m² | - |
| 1787500357 | 20° C | 71% | 1023.8 hPa | 0 mm | - | 399 W/m² | - |
| 1787500065 | 20° C | 72% | 1023.8 hPa | 0 mm | - | 387 W/m² | - |
| 1787499761 | 20° C | 72% | 1023.9 hPa | 0 mm | - | 439 W/m² | - |
| 1787499457 | 19.44° C | 73% | 1023.9 hPa | 0 mm | - | 439 W/m² | - |
| 1787499165 | 18.89° C | 73% | 1023.9 hPa | 0 mm | - | 450 W/m² | - |
| 1787498858 | 18.89° C | 72% | 1023.1 hPa | 0 mm | - | 425 W/m² | - |
| 1787498558 | 18.89° C | 73% | 1023.1 hPa | 0 mm | - | 420 W/m² | - |
| 1787498268 | 18.89° C | 75% | 1023.1 hPa | 0 mm | - | 357 W/m² | - |
| 1787497967 | 18.33° C | 75% | 1024.1 hPa | 0 mm | - | 267 W/m² | - |
| 1787497661 | 18.33° C | 74% | 1024.1 hPa | 0 mm | - | 144 W/m² | - |
| 1787497372 | 18.33° C | 73% | 1024.1 hPa | 0 mm | - | 306 W/m² | - |
| 1787497065 | 18.33° C | 75% | 1024.1 hPa | 0 mm | - | 512 W/m² | - |
| 1787496754 | 18.89° C | 73% | 1024.1 hPa | 0 mm | - | 169 W/m² | - |
| 1787496465 | 18.89° C | 74% | 1024.1 hPa | 0 mm | - | 332 W/m² | - |
| 1787496157 | 18.89° C | 75% | 1024.1 hPa | 0 mm | - | 250 W/m² | - |
| 1787495854 | 18.33° C | 75% | 1024.1 hPa | 0 mm | - | 188 W/m² | - |
| 1787495560 | 18.33° C | 75% | 1024.1 hPa | 0 mm | - | 186 W/m² | - |
| 1787495258 | 18.33° C | 75% | 1024.1 hPa | 0 mm | - | 207 W/m² | - |
| 1787494957 | 18.33° C | 74% | 1024.1 hPa | 0 mm | - | 199 W/m² | - |
| 1787494665 | 18.33° C | 74% | 1024.1 hPa | 0 mm | - | 165 W/m² | - |
* Rain since midnight (hover to see other rain measurements)
** Current wind speed in m/s (hover to see current wind gust speed)